Location: Newark
(54.3167°N, 48.3667°E)
Time: 20:50:21
(UTC+00:00)

N. Korean satellite - Visible Passes

Search period start: 11 December 2019 00:00
Search period end: 21 December 2019 00:00
Orbit: 455 x 506 km, 97.2° (Epoch: 10 December)

Date Brightness Start Highest point End Pass type
(mag) Time Alt. Az. Time Alt. Az. Time Alt. Az.
11 Dec 10.1 01:28:08 10° ENE 01:29:11 11° E 01:30:12 10° ESE visible
11 Dec 6.4 02:59:33 10° NNE 03:03:08 83° WNW 03:06:39 10° SSW visible
11 Dec 6.8 13:40:59 10° S 13:44:42 78° WSW 13:48:24 10° NNW visible
12 Dec 7.4 02:34:10 10° NNE 02:37:40 51° E 02:41:05 10° S visible
12 Dec 8.0 04:08:15 10° NNW 04:10:45 18° WNW 04:13:12 10° WSW visible
12 Dec 6.7 13:15:39 10° SSE 13:19:17 57° ENE 13:22:54 10° N visible
12 Dec 9.8 14:50:33 10° SW 14:53:00 17° W 14:55:26 10° NW visible
13 Dec 8.7 02:08:59 10° NNE 02:12:06 28° E 02:15:08 10° SSE visible
13 Dec 7.3 03:42:21 10° N 03:45:29 30° WNW 03:48:35 10° SW visible
13 Dec 8.8 14:24:07 10° SSW 14:27:21 28° W 14:30:35 10° NNW visible
14 Dec 9.6 01:44:10 10° NE 01:46:26 16° E 01:48:40 10° SE visible
14 Dec 6.6 03:16:42 10° N 03:20:10 53° WNW 03:23:34 10° SSW visible
14 Dec 7.6 13:58:12 10° S 14:01:48 51° W 14:05:23 10° NNW visible
15 Dec 6.5 02:51:11 10° NNE 02:54:44 81° ESE 02:58:13 10° SSW visible
15 Dec 6.6 13:32:38 10° SSE 13:36:20 86° ENE 13:39:59 10° NNW visible
15 Dec 10.1 15:09:02 10° WSW 15:10:16 11° W 15:11:29 10° WNW visible
16 Dec 7.8 02:25:52 10° NNE 02:29:14 41° E 02:32:32 10° S visible
16 Dec 7.8 03:59:43 10° NNW 04:02:25 21° WNW 04:05:05 10° WSW visible
16 Dec 6.9 13:07:23 10° SE 13:10:56 46° ENE 13:14:26 10° N visible
16 Dec 9.5 14:41:49 10° SW 14:44:33 19° W 14:47:16 10° NW visible
17 Dec 9.0 02:00:46 10° NE 02:03:38 23° E 02:06:27 10° SSE visible
17 Dec 7.1 03:33:54 10° N 03:37:08 35° WNW 03:40:19 10° SW visible
17 Dec 8.5 14:15:34 10° SSW 14:18:56 33° W 14:22:17 10° NNW visible
18 Dec 9.8 01:36:11 10° ENE 01:37:56 13° E 01:39:40 10° ESE visible
18 Dec 6.4 03:08:16 10° N 03:11:46 65° WNW 03:15:12 10° SSW visible
18 Dec 7.1 13:49:46 10° S 13:53:24 62° WSW 13:57:00 10° NNW visible
19 Dec 6.8 02:42:49 10° NNE 02:46:19 65° ESE 02:49:45 10° S visible
19 Dec 8.2 04:17:14 10° NNW 04:19:18 15° WNW 04:21:20 10° W visible
19 Dec 6.5 13:24:18 10° SSE 13:27:57 71° ENE 13:31:33 10° N visible
19 Dec 9.9 14:59:55 10° WSW 15:01:46 13° W 15:03:38 10° WNW visible
20 Dec 8.2 02:17:33 10° NNE 02:20:46 34° E 02:23:56 10° SSE visible
20 Dec 7.5 03:51:11 10° N 03:54:04 24° WNW 03:56:55 10° WSW visible
20 Dec 9.2 14:33:09 10° SSW 14:36:06 23° W 14:39:02 10° NW visible
